SJX840 RCTP-RJFF

Flight info

Callsign SJX840
Flight time 1h 40m
Altitude 39000
Route MOLKA1C MOLKA M750 MOMPA Y25 GOKYO/N0458F380 Y25 ISKUP
Aircraft A339/H-SADE1E2E3GHIJ3J5M1P2RWXY/LB2D1

Departure

Time 2026-05-05 19:33
Airport Taiwan Taoyuan International Airport (RCTP)

Arrival

Time 2026-05-05 21:13
Airport Fukuoka Airport (RJFF)
Time Latitude Longitude Altitude Speed Heading
2026-05-05 19:07 25.07900 121.23038 123 ft 0 kts 139°
2026-05-05 19:20 25.07907 121.23031 123 ft 2 kts 139°
2026-05-05 19:20 25.07918 121.23020 123 ft 2 kts 139°
2026-05-05 19:20 25.07930 121.23010 123 ft 2 kts 139°
2026-05-05 19:21 25.07941 121.22999 123 ft 2 kts 141°
2026-05-05 19:21 25.07954 121.22990 123 ft 2 kts 159°
2026-05-05 19:21 25.07968 121.22986 123 ft 2 kts 173°
2026-05-05 19:21 25.07983 121.22985 123 ft 2 kts 187°
2026-05-05 19:22 25.07998 121.22989 123 ft 2 kts 202°
2026-05-05 19:22 25.08011 121.22997 123 ft 2 kts 216°
2026-05-05 19:22 25.08020 121.23005 123 ft 0 kts 227°
2026-05-05 19:22 25.08023 121.23008 123 ft 0 kts 229°
2026-05-05 19:26 25.08021 121.23006 123 ft 1 kts 229°
2026-05-05 19:27 25.08011 121.22989 123 ft 4 kts 246°
2026-05-05 19:27 25.08015 121.22947 123 ft 7 kts 297°
2026-05-05 19:27 25.08040 121.22890 123 ft 9 kts 270°
2026-05-05 19:27 25.08007 121.22819 123 ft 11 kts 229°
2026-05-05 19:28 25.07950 121.22748 123 ft 12 kts 229°
2026-05-05 19:28 25.07897 121.22680 123 ft 6 kts 229°
2026-05-05 19:28 25.07860 121.22633 123 ft 10 kts 229°
2026-05-05 19:28 25.07807 121.22566 123 ft 12 kts 229°
2026-05-05 19:29 25.07747 121.22490 123 ft 13 kts 229°
2026-05-05 19:29 25.07682 121.22407 123 ft 14 kts 229°
2026-05-05 19:29 25.07614 121.22321 123 ft 15 kts 229°
2026-05-05 19:29 25.07542 121.22231 123 ft 15 kts 229°
2026-05-05 19:30 25.07468 121.22137 123 ft 16 kts 229°
2026-05-05 19:30 25.07391 121.22040 123 ft 16 kts 229°
2026-05-05 19:30 25.07314 121.21941 123 ft 17 kts 229°
2026-05-05 19:30 25.07234 121.21841 123 ft 17 kts 229°
2026-05-05 19:31 25.07176 121.21760 123 ft 10 kts 250°
2026-05-05 19:31 25.07200 121.21685 123 ft 11 kts 316°
2026-05-05 19:31 25.07268 121.21631 123 ft 12 kts 342°
2026-05-05 19:31 25.07332 121.21654 123 ft 6 kts 48°
2026-05-05 19:32 25.07380 121.21715 123 ft 19 kts 49°
2026-05-05 19:32 25.07614 121.22012 123 ft 86 kts 49°
2026-05-05 19:32 25.08142 121.22684 123 ft 146 kts 49°
2026-05-05 19:32 25.08905 121.23646 350 ft 176 kts 49°
2026-05-05 19:33 25.09700 121.24635 1038 ft 174 kts 48°
2026-05-05 19:33 25.10500 121.25639 1684 ft 178 kts 49°
2026-05-05 19:33 25.11323 121.26701 2192 ft 187 kts 50°
2026-05-05 19:33 25.12194 121.27818 2586 ft 201 kts 50°
2026-05-05 19:34 25.13142 121.29038 2951 ft 218 kts 50°
2026-05-05 19:34 25.14168 121.30368 3312 ft 236 kts 51°
2026-05-05 19:34 25.15274 121.31812 3695 ft 254 kts 51°
2026-05-05 19:35 25.17679 121.34945 4754 ft 279 kts 50°
2026-05-05 19:35 25.18946 121.36596 5488 ft 284 kts 49°
2026-05-05 19:35 25.20234 121.38268 6191 ft 290 kts 49°
2026-05-05 19:35 25.21548 121.39976 6919 ft 295 kts 48°
2026-05-05 19:36 25.22877 121.41701 7676 ft 298 kts 47°
2026-05-05 19:36 25.24219 121.43445 8421 ft 302 kts 47°
2026-05-05 19:36 25.25575 121.45209 9159 ft 306 kts 47°
2026-05-05 19:36 25.26970 121.47023 9889 ft 310 kts 47°
2026-05-05 19:37 25.28362 121.48874 10509 ft 320 kts 51°
2026-05-05 19:37 25.29500 121.51073 10879 ft 340 kts 66°
2026-05-05 19:37 25.30149 121.53648 11212 ft 360 kts 82°
2026-05-05 19:37 25.30234 121.56445 11633 ft 374 kts 92°
2026-05-05 19:38 25.30283 121.59316 12270 ft 381 kts 84°
2026-05-05 19:38 25.30694 121.62243 12991 ft 385 kts 79°
2026-05-05 19:38 25.31191 121.65155 13624 ft 391 kts 79°
2026-05-05 19:38 25.31737 121.68093 14255 ft 397 kts 78°
2026-05-05 19:39 25.32309 121.71075 14920 ft 401 kts 78°
2026-05-05 19:39 25.32897 121.74101 15589 ft 404 kts 78°
2026-05-05 19:39 25.33489 121.77132 16234 ft 409 kts 79°
2026-05-05 19:39 25.34089 121.80206 16855 ft 412 kts 79°
2026-05-05 19:40 25.34696 121.83336 17509 ft 416 kts 80°
2026-05-05 19:40 25.35300 121.86455 18142 ft 419 kts 80°
2026-05-05 19:40 25.35907 121.89600 18727 ft 423 kts 79°
2026-05-05 19:40 25.36519 121.92769 19273 ft 428 kts 79°
2026-05-05 19:41 25.37141 121.96008 19852 ft 432 kts 79°
2026-05-05 19:41 25.37765 121.99235 20389 ft 436 kts 79°
2026-05-05 19:41 25.38399 122.02521 20889 ft 441 kts 79°
2026-05-05 19:41 25.39046 122.05885 21410 ft 446 kts 79°
2026-05-05 19:42 25.39690 122.09225 21920 ft 451 kts 79°
2026-05-05 19:42 25.40343 122.12620 22431 ft 455 kts 79°
2026-05-05 19:42 25.41001 122.16057 22939 ft 459 kts 79°
2026-05-05 19:42 25.41717 122.19499 23465 ft 463 kts 76°
2026-05-05 19:43 25.42627 122.22926 23997 ft 467 kts 72°
2026-05-05 19:43 25.43717 122.26313 24537 ft 471 kts 70°
2026-05-05 19:43 25.44868 122.29716 25064 ft 474 kts 70°
2026-05-05 19:43 25.46025 122.33098 25576 ft 477 kts 70°
2026-05-05 19:44 25.47202 122.36556 26096 ft 480 kts 70°
2026-05-05 19:44 25.48381 122.40040 26554 ft 484 kts 70°
2026-05-05 19:44 25.49542 122.43493 27019 ft 487 kts 70°
2026-05-05 19:44 25.50726 122.47024 27499 ft 490 kts 70°
2026-05-05 19:45 25.51919 122.50588 27952 ft 493 kts 70°
2026-05-05 19:45 25.53102 122.54126 28398 ft 496 kts 70°
2026-05-05 19:45 25.54297 122.57700 28815 ft 499 kts 70°
2026-05-05 19:45 25.55512 122.61344 29232 ft 502 kts 71°
2026-05-05 19:46 25.56719 122.64964 29606 ft 506 kts 70°
2026-05-05 19:46 25.57935 122.68614 29970 ft 509 kts 71°
2026-05-05 19:46 25.59156 122.72288 30335 ft 511 kts 71°
2026-05-05 19:46 25.60377 122.75960 30705 ft 514 kts 71°
2026-05-05 19:47 25.61610 122.79668 31049 ft 517 kts 71°
2026-05-05 19:47 25.62859 122.83441 31380 ft 520 kts 71°
2026-05-05 19:47 25.64100 122.87181 31733 ft 521 kts 71°
2026-05-05 19:47 25.65356 122.90923 32069 ft 524 kts 70°
2026-05-05 19:48 25.66633 122.94696 32441 ft 525 kts 70°
2026-05-05 19:48 25.67918 122.98495 32931 ft 524 kts 71°
2026-05-05 19:48 25.69180 123.02228 33418 ft 522 kts 70°
2026-05-05 19:48 25.70453 123.06014 33860 ft 521 kts 71°
2026-05-05 19:49 25.71708 123.09744 34274 ft 521 kts 71°
2026-05-05 19:49 25.72544 123.12233 34551 ft 521 kts 70°
2026-05-05 19:49 25.74237 123.17284 35028 ft 521 kts 70°
2026-05-05 19:49 25.75494 123.21037 35388 ft 522 kts 70°
2026-05-05 19:50 25.76745 123.24773 35750 ft 522 kts 71°
2026-05-05 19:50 25.78011 123.28557 36120 ft 521 kts 70°
2026-05-05 19:50 25.79260 123.32294 36455 ft 522 kts 70°
2026-05-05 19:50 25.80512 123.36050 36763 ft 523 kts 70°
2026-05-05 19:51 25.81782 123.39857 37077 ft 523 kts 70°
2026-05-05 19:51 25.83041 123.43640 37384 ft 523 kts 70°
2026-05-05 19:51 25.84290 123.47398 37618 ft 525 kts 70°
2026-05-05 19:51 25.85675 123.51157 37833 ft 528 kts 63°
2026-05-05 19:52 25.87507 123.54686 38051 ft 530 kts 54°
2026-05-05 19:52 25.89775 123.57889 38266 ft 529 kts 45°
2026-05-05 19:52 25.92450 123.60706 38529 ft 526 kts 35°
2026-05-05 19:52 25.95403 123.63029 38777 ft 522 kts 26°
2026-05-05 19:53 25.98624 123.64912 38931 ft 520 kts 20°
2026-05-05 19:53 26.05183 123.68233 38957 ft 521 kts 19°
2026-05-05 19:54 26.11810 123.71600 38951 ft 522 kts 20°
2026-05-05 19:54 26.18376 123.75008 38934 ft 523 kts 21°
2026-05-05 19:55 26.24990 123.78477 38956 ft 523 kts 21°
2026-05-05 19:55 26.31544 123.81918 38973 ft 525 kts 21°
2026-05-05 19:56 26.38163 123.85400 38965 ft 525 kts 21°
2026-05-05 19:56 26.44766 123.88878 38958 ft 525 kts 20°
2026-05-05 19:57 26.51346 123.92345 38967 ft 525 kts 21°
2026-05-05 19:57 26.57976 123.95882 38966 ft 527 kts 23°
2026-05-05 19:58 26.64238 124.00164 38974 ft 533 kts 33°
2026-05-05 19:58 26.69890 124.05544 38965 ft 536 kts 44°
2026-05-05 19:59 26.74823 124.11800 38972 ft 539 kts 50°
2026-05-05 19:59 26.79578 124.18303 38982 ft 539 kts 50°
2026-05-05 20:00 26.84322 124.24736 38977 ft 540 kts 49°
2026-05-05 20:00 26.89134 124.31216 38965 ft 540 kts 50°
2026-05-05 20:01 26.93930 124.37677 38972 ft 541 kts 50°
2026-05-05 20:01 26.98721 124.44128 38970 ft 540 kts 49°
2026-05-05 20:02 27.03513 124.50591 38963 ft 541 kts 50°
2026-05-05 20:02 27.08327 124.57085 38980 ft 542 kts 50°
2026-05-05 20:03 27.13131 124.63590 38970 ft 542 kts 50°
2026-05-05 20:03 27.17942 124.70115 38972 ft 541 kts 50°
2026-05-05 20:04 27.22707 124.76584 38970 ft 541 kts 50°
2026-05-05 20:04 27.27529 124.83139 38985 ft 542 kts 50°
2026-05-05 20:05 27.32325 124.89667 38985 ft 542 kts 50°
2026-05-05 20:05 27.37104 124.96187 38966 ft 543 kts 51°
2026-05-05 20:06 27.41908 125.02734 38988 ft 544 kts 50°
2026-05-05 20:06 27.46724 125.09212 38983 ft 544 kts 50°
2026-05-05 20:07 27.51577 125.15751 38989 ft 545 kts 50°
2026-05-05 20:07 27.56444 125.22320 39002 ft 545 kts 50°
2026-05-05 20:08 27.61284 125.28880 38999 ft 546 kts 51°
2026-05-05 20:08 27.66113 125.35441 38993 ft 546 kts 50°
2026-05-05 20:09 27.70956 125.42020 39003 ft 547 kts 51°
2026-05-05 20:09 27.75815 125.48632 38995 ft 548 kts 50°
2026-05-05 20:10 27.80660 125.55248 39002 ft 550 kts 50°
2026-05-05 20:10 27.85555 125.61919 39013 ft 552 kts 50°
2026-05-05 20:11 27.90443 125.68606 38995 ft 551 kts 51°
2026-05-05 20:11 27.95223 125.75153 39001 ft 552 kts 51°
2026-05-05 20:12 28.00114 125.81862 39008 ft 554 kts 51°
2026-05-05 20:12 28.05000 125.88573 39017 ft 556 kts 51°
2026-05-05 20:13 28.09896 125.95308 39017 ft 555 kts 51°
2026-05-05 20:13 28.14819 126.02091 39013 ft 556 kts 51°
2026-05-05 20:14 28.19705 126.08841 39004 ft 556 kts 51°
2026-05-05 20:14 28.24597 126.15613 39008 ft 558 kts 51°
2026-05-05 20:15 28.29519 126.22421 39008 ft 558 kts 50°
2026-05-05 20:15 28.34445 126.29252 39006 ft 558 kts 51°
2026-05-05 20:16 28.39332 126.36037 39012 ft 558 kts 51°
2026-05-05 20:16 28.44222 126.42849 39013 ft 557 kts 50°
2026-05-05 20:17 28.49127 126.49686 39017 ft 558 kts 50°
2026-05-05 20:17 28.54010 126.56499 39010 ft 557 kts 50°
2026-05-05 20:18 28.58915 126.63356 39016 ft 558 kts 50°
2026-05-05 20:18 28.63804 126.70198 39018 ft 560 kts 51°
2026-05-05 20:19 28.68685 126.77041 39020 ft 558 kts 51°
2026-05-05 20:19 28.73582 126.83934 39026 ft 558 kts 51°
2026-05-05 20:20 28.78458 126.90797 39029 ft 559 kts 51°
2026-05-05 20:20 28.83309 126.97644 39034 ft 559 kts 51°
2026-05-05 20:21 28.88214 127.04564 39036 ft 560 kts 51°
2026-05-05 20:21 28.93090 127.11461 39038 ft 560 kts 50°
2026-05-05 20:22 28.97953 127.18357 39041 ft 559 kts 50°
2026-05-05 20:22 29.02817 127.25253 39042 ft 559 kts 51°
2026-05-05 20:23 29.07698 127.32194 39037 ft 561 kts 50°
2026-05-05 20:23 29.12570 127.39132 39033 ft 561 kts 50°
2026-05-05 20:24 29.17420 127.46045 39035 ft 561 kts 50°
2026-05-05 20:24 29.22295 127.53017 39038 ft 561 kts 51°
2026-05-05 20:25 29.27178 127.60004 39038 ft 562 kts 50°
2026-05-05 20:25 29.32046 127.66966 39032 ft 563 kts 51°
2026-05-05 20:26 29.36924 127.73983 39035 ft 564 kts 51°
2026-05-05 20:26 29.41793 127.80984 39039 ft 564 kts 50°
2026-05-05 20:27 29.46652 127.87998 39041 ft 563 kts 50°
2026-05-05 20:27 29.51534 127.95032 39040 ft 563 kts 51°
2026-05-05 20:28 29.56386 128.02052 39039 ft 563 kts 51°
2026-05-05 20:28 29.61242 128.09079 39037 ft 564 kts 50°
2026-05-05 20:29 29.66114 128.16135 39033 ft 564 kts 51°
2026-05-05 20:29 29.70968 128.23167 39032 ft 564 kts 51°
2026-05-05 20:30 29.75831 128.30252 39034 ft 565 kts 51°
2026-05-05 20:30 29.80697 128.37343 39037 ft 566 kts 51°
2026-05-05 20:31 29.85555 128.44432 39035 ft 566 kts 51°
2026-05-05 20:31 29.90437 128.51576 39034 ft 567 kts 51°
2026-05-05 20:32 29.95296 128.58682 39036 ft 567 kts 51°
2026-05-05 20:32 30.00165 128.65826 39032 ft 568 kts 51°
2026-05-05 20:33 30.05073 128.73033 39036 ft 569 kts 51°
2026-05-05 20:33 30.09925 128.80177 39042 ft 570 kts 50°
2026-05-05 20:34 30.14787 128.87364 39042 ft 569 kts 51°
2026-05-05 20:34 30.19639 128.94556 39043 ft 568 kts 50°
2026-05-05 20:35 30.24522 129.01752 39044 ft 569 kts 51°
2026-05-05 20:35 30.29385 129.08940 39043 ft 570 kts 52°
2026-05-05 20:36 30.34226 129.16150 39040 ft 569 kts 51°
2026-05-05 20:36 30.39068 129.23370 39044 ft 567 kts 51°
2026-05-05 20:37 30.43911 129.30585 39041 ft 569 kts 51°
2026-05-05 20:37 30.48764 129.37848 39043 ft 568 kts 51°
2026-05-05 20:38 30.53564 129.45027 39046 ft 567 kts 50°
2026-05-05 20:38 30.58399 129.52275 39044 ft 568 kts 50°
2026-05-05 20:39 30.63199 129.59474 39051 ft 567 kts 51°
2026-05-05 20:39 30.68023 129.66751 39042 ft 567 kts 51°
2026-05-05 20:40 30.72809 129.73958 39045 ft 567 kts 50°
2026-05-05 20:40 30.77592 129.81204 38970 ft 567 kts 51°
2026-05-05 20:40 30.80159 129.84738 38339 ft 568 kts 42°
2026-05-05 20:41 30.83089 129.87720 37690 ft 561 kts 31°
2026-05-05 20:41 30.86355 129.90083 37091 ft 551 kts 20°
2026-05-05 20:41 30.89873 129.91785 36507 ft 538 kts 10°
2026-05-05 20:41 30.93433 129.92790 35913 ft 526 kts
2026-05-05 20:42 30.97023 129.93271 35337 ft 519 kts 356°
2026-05-05 20:42 31.00666 129.93591 34800 ft 518 kts 355°
2026-05-05 20:42 31.04250 129.93890 34231 ft 521 kts 355°
2026-05-05 20:42 31.07856 129.94214 33624 ft 524 kts 357°
2026-05-05 20:43 31.11501 129.94579 32945 ft 527 kts 358°
2026-05-05 20:43 31.15170 129.94980 32294 ft 528 kts 358°
2026-05-05 20:43 31.18801 129.95387 31806 ft 525 kts 357°
2026-05-05 20:43 31.22403 129.95793 31443 ft 519 kts 357°
2026-05-05 20:44 31.25975 129.96193 31060 ft 514 kts 356°
2026-05-05 20:44 31.29536 129.96582 30687 ft 508 kts 355°
2026-05-05 20:44 31.33020 129.96892 30303 ft 502 kts 354°
2026-05-05 20:44 31.36469 129.97162 29921 ft 497 kts 353°
2026-05-05 20:45 31.43345 129.97676 29158 ft 488 kts 353°
2026-05-05 20:45 31.46718 129.97932 28788 ft 484 kts 354°
2026-05-05 20:45 31.50050 129.98190 28407 ft 481 kts 354°
2026-05-05 20:46 31.53371 129.98444 28025 ft 478 kts 354°
2026-05-05 20:46 31.56670 129.98700 27650 ft 475 kts 355°
2026-05-05 20:46 31.59980 129.98967 27272 ft 472 kts 354°
2026-05-05 20:46 31.63234 129.99231 26915 ft 468 kts 354°
2026-05-05 20:47 31.66457 129.99478 26548 ft 464 kts 354°
2026-05-05 20:47 31.69650 129.99719 26180 ft 461 kts 354°
2026-05-05 20:47 31.72855 129.99962 25794 ft 458 kts 354°
2026-05-05 20:47 31.76032 130.00205 25409 ft 456 kts 354°
2026-05-05 20:48 31.79174 130.00452 25026 ft 454 kts 355°
2026-05-05 20:48 31.82323 130.00702 24637 ft 452 kts 354°
2026-05-05 20:48 31.85449 130.00957 24263 ft 449 kts 354°
2026-05-05 20:48 31.88543 130.01202 23893 ft 446 kts 354°
2026-05-05 20:49 31.91648 130.01450 23532 ft 443 kts 355°
2026-05-05 20:49 31.94704 130.01695 23171 ft 440 kts 355°
2026-05-05 20:49 31.97751 130.01942 22828 ft 437 kts 355°
2026-05-05 20:49 32.00771 130.02184 22489 ft 434 kts 355°
2026-05-05 20:50 32.03799 130.02423 22147 ft 431 kts 356°
2026-05-05 20:50 32.06767 130.02657 21796 ft 428 kts 356°
2026-05-05 20:50 32.09711 130.02892 21441 ft 426 kts 356°
2026-05-05 20:50 32.12653 130.03125 21074 ft 422 kts 357°
2026-05-05 20:51 32.15612 130.03365 20712 ft 418 kts 358°
2026-05-05 20:51 32.18506 130.03600 20361 ft 415 kts 358°
2026-05-05 20:51 32.21366 130.03830 20003 ft 411 kts 359°
2026-05-05 20:51 32.24195 130.04057 19640 ft 408 kts 359°
2026-05-05 20:52 32.26997 130.04283 19290 ft 404 kts 360°
2026-05-05 20:52 32.29817 130.04512 18944 ft 401 kts
2026-05-05 20:52 32.32566 130.04735 18586 ft 397 kts
2026-05-05 20:52 32.35309 130.04958 18229 ft 394 kts
2026-05-05 20:53 32.38061 130.05180 17867 ft 390 kts
2026-05-05 20:53 32.40720 130.05399 17521 ft 386 kts
2026-05-05 20:53 32.43388 130.05618 17170 ft 383 kts
2026-05-05 20:53 32.46039 130.05839 16818 ft 380 kts
2026-05-05 20:54 32.48685 130.06059 16473 ft 376 kts
2026-05-05 20:54 32.51272 130.06270 16133 ft 373 kts
2026-05-05 20:54 32.53854 130.06479 15788 ft 370 kts
2026-05-05 20:54 32.56424 130.06689 15439 ft 367 kts
2026-05-05 20:55 32.58955 130.06841 15103 ft 363 kts 358°
2026-05-05 20:55 32.61454 130.06680 14757 ft 359 kts 352°
2026-05-05 20:55 32.63907 130.06198 14407 ft 355 kts 346°
2026-05-05 20:55 32.66317 130.05586 14063 ft 351 kts 346°
2026-05-05 20:56 32.68688 130.04967 13728 ft 347 kts 346°
2026-05-05 20:56 32.71039 130.04355 13382 ft 344 kts 346°
2026-05-05 20:56 32.73370 130.03754 13041 ft 342 kts 346°
2026-05-05 20:56 32.75678 130.03162 12731 ft 340 kts 346°
2026-05-05 20:57 32.78006 130.02618 12386 ft 337 kts 352°
2026-05-05 20:57 32.80323 130.02896 12015 ft 339 kts 17°
2026-05-05 20:57 32.82373 130.04233 11648 ft 339 kts 39°
2026-05-05 20:57 32.84121 130.06096 11335 ft 337 kts 42°
2026-05-05 20:58 32.85860 130.07991 11015 ft 334 kts 42°
2026-05-05 20:58 32.87572 130.09834 10691 ft 332 kts 42°
2026-05-05 20:58 32.89281 130.11662 10378 ft 329 kts 42°
2026-05-05 20:58 32.90968 130.13463 10253 ft 320 kts 42°
2026-05-05 20:59 32.92599 130.15196 10216 ft 308 kts 41°
2026-05-05 20:59 32.94182 130.16876 10176 ft 297 kts 41°
2026-05-05 20:59 32.95686 130.18471 10135 ft 287 kts 41°
2026-05-05 20:59 32.97178 130.20050 9943 ft 286 kts 41°
2026-05-05 21:00 32.98672 130.21632 9657 ft 286 kts 41°
2026-05-05 21:00 33.00158 130.23206 9387 ft 285 kts 41°
2026-05-05 21:00 33.01619 130.24754 9126 ft 284 kts 41°
2026-05-05 21:00 33.03094 130.26317 8861 ft 284 kts 41°
2026-05-05 21:01 33.04566 130.27878 8599 ft 282 kts 41°
2026-05-05 21:01 33.06041 130.29440 8338 ft 281 kts 41°
2026-05-05 21:01 33.07497 130.30980 8080 ft 281 kts 41°
2026-05-05 21:01 33.08959 130.32532 7823 ft 279 kts 41°
2026-05-05 21:02 33.10407 130.34070 7569 ft 279 kts 41°
2026-05-05 21:02 33.11848 130.35597 7310 ft 278 kts 41°
2026-05-05 21:02 33.13302 130.37141 7055 ft 277 kts 41°
2026-05-05 21:02 33.14738 130.38666 6768 ft 277 kts 42°
2026-05-05 21:03 33.16177 130.40198 6461 ft 278 kts 42°
2026-05-05 21:03 33.17616 130.41734 6186 ft 278 kts 42°
2026-05-05 21:03 33.19056 130.43266 5929 ft 277 kts 42°
2026-05-05 21:03 33.20483 130.44794 5684 ft 276 kts 42°
2026-05-05 21:04 33.21928 130.46338 5434 ft 275 kts 42°
2026-05-05 21:04 33.23341 130.47847 5191 ft 274 kts 43°
2026-05-05 21:04 33.24756 130.49361 5021 ft 270 kts 43°
2026-05-05 21:04 33.26140 130.50839 5004 ft 259 kts 43°
2026-05-05 21:05 33.27454 130.52243 5001 ft 249 kts 43°
2026-05-05 21:05 33.28668 130.53650 5000 ft 237 kts 52°
2026-05-05 21:05 33.29600 130.55250 4864 ft 236 kts 61°
2026-05-05 21:05 33.30407 130.56934 4613 ft 231 kts 63°
2026-05-05 21:06 33.31176 130.58586 4422 ft 219 kts 63°
2026-05-05 21:06 33.31898 130.60120 4258 ft 210 kts 57°
2026-05-05 21:06 33.32992 130.61240 4056 ft 208 kts 19°
2026-05-05 21:06 33.34394 130.61356 4011 ft 198 kts 345°
2026-05-05 21:07 33.35657 130.60777 4016 ft 193 kts 332°
2026-05-05 21:07 33.36803 130.60028 4009 ft 182 kts 328°
2026-05-05 21:07 33.37885 130.59270 4001 ft 180 kts 327°
2026-05-05 21:07 33.38968 130.58507 3998 ft 180 kts 328°
2026-05-05 21:08 33.40055 130.57750 3927 ft 181 kts 328°
2026-05-05 21:08 33.41139 130.56998 3701 ft 181 kts 329°
2026-05-05 21:08 33.42247 130.56238 3463 ft 182 kts 329°
2026-05-05 21:08 33.43348 130.55484 3221 ft 184 kts 329°
2026-05-05 21:09 33.44459 130.54724 2981 ft 185 kts 329°
2026-05-05 21:09 33.45595 130.53949 2730 ft 187 kts 330°
2026-05-05 21:09 33.46727 130.53177 2477 ft 186 kts 330°
2026-05-05 21:09 33.47834 130.52425 2227 ft 179 kts 330°
2026-05-05 21:10 33.48898 130.51698 1974 ft 173 kts 330°
2026-05-05 21:10 33.49924 130.50996 1745 ft 166 kts 330°
2026-05-05 21:10 33.50922 130.50316 1534 ft 160 kts 330°
2026-05-05 21:10 33.51875 130.49663 1325 ft 154 kts 331°
2026-05-05 21:11 33.52792 130.49036 1130 ft 149 kts 331°
2026-05-05 21:11 33.53675 130.48433 937 ft 145 kts 331°
2026-05-05 21:11 33.54554 130.47827 749 ft 146 kts 329°
2026-05-05 21:11 33.55426 130.47237 558 ft 145 kts 329°
2026-05-05 21:12 33.56305 130.46632 357 ft 144 kts 331°
2026-05-05 21:12 33.57174 130.46045 162 ft 143 kts 329°
2026-05-05 21:12 33.58025 130.45464 50 ft 132 kts 329°
2026-05-05 21:12 33.58667 130.45023 49 ft 79 kts 330°
2026-05-05 21:13 33.59017 130.44783 49 ft 44 kts 330°
2026-05-05 21:13 33.59234 130.44635 49 ft 30 kts 330°
2026-05-05 21:13 33.59407 130.44527 49 ft 25 kts 341°
2026-05-05 21:13 33.59575 130.44492 49 ft 19 kts 358°
2026-05-05 21:14 33.59663 130.44508 49 ft 11 kts 33°
2026-05-05 21:14 33.59721 130.44525 49 ft 7 kts 344°
2026-05-05 21:14 33.59777 130.44492 49 ft 9 kts 331°
2026-05-05 21:14 33.59831 130.44475 49 ft 7 kts 22°
2026-05-05 21:15 33.59868 130.44536 49 ft 10 kts 62°
2026-05-05 21:15 33.59897 130.44598 49 ft 4 kts 60°
2026-05-05 21:15 33.59904 130.44612 49 ft 0 kts 60°